Terminal Aerodrome Forecast
Issued by NWS Portland, OR

Home | Current Version | Previous Version | Text Only | Print | Product List | Glossary On
Versions: 1 2 3 4 5 6 7 8 9 10 11 12 13 14 15 16 17 18 19 20 21 22 23 24 25 26 27 28 29 30 31 32
000
FTUS46 KPQR 210527
TAFSLE
TAF
KSLE 210527Z 2106/2206 36007KT P6SM FEW050
     FM211300 VRB03KT P6SM BKN020
     FM211700 32004KT P6SM SCT045
     FM211900 32008KT P6SM SKC=

USA.gov is the U.S. government's official web portal to all federal, state and local government web resources and services.